This is the latest recevied weather packets stored in our database for station/object E27EKO-13. If no packets are shown the sender has not sent any weather packets the latest 10 day(s).
| Time | Temp. | Humidity | Pressure | Rain* | Wind** | Luminosity | Snow |
|---|---|---|---|---|---|---|---|
| 1777905506 | 29.44° C | 95% | 1010 hPa | - | - | 0 W/m² | - |
| 1777905184 | 30° C | 96% | 1010 hPa | - | - | 0 W/m² | - |
| 1777904862 | 29.44° C | 93% | 1010 hPa | - | - | 0 W/m² | - |
| 1777904540 | 30.56° C | 90% | 1010 hPa | - | - | 0 W/m² | - |
| 1777904384 | 30° C | 91% | 1010 hPa | - | - | 0 W/m² | - |
| 1777904062 | 30° C | 94% | 1010 hPa | - | - | 0 W/m² | - |
| 1777903739 | 30° C | 94% | 1009 hPa | - | - | 0 W/m² | - |
| 1777900932 | 30.56° C | 85% | 1008 hPa | - | - | 0 W/m² | - |
| 1777900610 | 31.11° C | 84% | 1008 hPa | - | - | 0 W/m² | - |
| 1777900288 | 31.11° C | 84% | 1008 hPa | - | - | 0 W/m² | - |
| 1777899966 | 31.11° C | 84% | 1008 hPa | - | - | 0 W/m² | - |
| 1777899644 | 31.67° C | 85% | 1008 hPa | - | - | 0 W/m² | - |
| 1777899322 | 31.11° C | 85% | 1008 hPa | - | - | 0 W/m² | - |
| 1777899000 | 31.11° C | 84% | 1007 hPa | - | - | 0 W/m² | - |
| 1777898678 | 31.11° C | 80% | 1007 hPa | - | - | 0 W/m² | - |
| 1777898356 | 31.11° C | 81% | 1007 hPa | - | - | 0 W/m² | - |
| 1777898034 | 31.11° C | 81% | 1007 hPa | - | - | 0 W/m² | - |
| 1777897636 | 31.11° C | 81% | 1007 hPa | - | - | 0 W/m² | - |
| 1777897314 | 31.11° C | 82% | 1007 hPa | - | - | 0 W/m² | - |
| 1777896992 | 31.67° C | 81% | 1007 hPa | - | - | 0 W/m² | - |
| 1777896670 | 31.67° C | 80% | 1007 hPa | - | - | 0 W/m² | - |
| 1777896348 | 31.67° C | 82% | 1007 hPa | - | - | 0 W/m² | - |
| 1777896026 | 31.67° C | 81% | 1007 hPa | - | - | 0 W/m² | - |
| 1777895704 | 31.67° C | 81% | 1007 hPa | - | - | 0 W/m² | - |
| 1777895382 | 32.22° C | 79% | 1007 hPa | - | - | 0 W/m² | - |
* Rain since midnight (hover to see other rain measurements)
** Current wind speed in m/s (hover to see current wind gust speed)